Time,TemperatureF,DewpointF,PressureIn,WindDirection,WindDirectionDegrees,WindSpeedMPH,WindSpeedGustMPH,Humidity,HourlyPrecipIn,Conditions,Clouds,dailyrainin,SoftwareType,DateUTC
2013-04-28 00:00:00,45.3,34.2,30.24,SSE,158,0.0,0.0,65,0.00,CLR,,0.00,WeatherDisplay:10.37,2013-04-28 04:00:00,
2013-04-28 00:01:00,45.3,34.2,30.24,WSW,248,0.0,0.0,65,0.00,CLR,,0.00,WeatherDisplay:10.37,2013-04-28 04:01:00,
2013-04-28 00:06:00,45.0,34.7,30.24,WNW,292,0.0,0.0,67,0.00,CLR,,0.00,WeatherDisplay:10.37,2013-04-28 04:06:00,
2013-04-28 00:11:00,45.0,35.1,30.24,NNE,22,0.0,0.0,68,0.00,CLR,,0.00,WeatherDisplay:10.37,2013-04-28 04:11:00,
2013-04-28 00:16:00,44.8,34.9,30.24,ENE,68,0.0,0.0,68,0.00,CLR,,0.00,WeatherDisplay:10.37,2013-04-28 04:16:00,
2013-04-28 00:21:00,44.6,35.1,30.24,NNW,338,0.0,0.0,69,0.00,CLR,,0.00,WeatherDisplay:10.37,2013-04-28 04:21:00,
2013-04-28 00:26:00,44.2,35.0,30.24,NNW,338,0.0,0.0,70,0.00,CLR,,0.00,WeatherDisplay:10.37,2013-04-28 04:26:00,
2013-04-28 00:31:00,44.4,35.2,30.24,West,270,0.0,0.0,70,0.00,CLR,,0.00,WeatherDisplay:10.37,2013-04-28 04:31:00,
2013-04-28 00:36:00,44.1,34.9,30.24,West,270,0.0,0.0,70,0.00,CLR,,0.00,WeatherDisplay:10.37,2013-04-28 04:36:00,
2013-04-28 00:41:00,43.9,34.7,30.24,NW,315,0.0,0.0,70,0.00,CLR,,0.00,WeatherDisplay:10.37,2013-04-28 04:41:00,
2013-04-28 00:46:00,43.7,34.2,30.24,WSW,248,0.0,0.0,69,0.00,CLR,,0.00,WeatherDisplay:10.37,2013-04-28 04:46:00,
2013-04-28 00:51:00,43.5,34.4,30.23,South,180,0.0,0.0,70,0.00,CLR,,0.00,WeatherDisplay:10.37,2013-04-28 04:51:00,
2013-04-28 00:56:00,43.2,34.1,30.23,SE,135,0.0,0.0,70,0.00,CLR,,0.00,WeatherDisplay:10.37,2013-04-28 04:56:00,
2013-04-28 01:01:00,42.8,34.0,30.23,SE,135,0.0,0.0,71,0.00,CLR,,0.00,WeatherDisplay:10.37,2013-04-28 05:01:00,
2013-04-28 01:06:00,42.6,33.9,30.23,South,180,0.0,0.0,71,0.00,CLR,,0.00,WeatherDisplay:10.37,2013-04-28 05:06:00,
2013-04-28 01:11:00,42.3,33.9,30.23,SW,225,0.0,0.0,72,0.00,CLR,,0.00,WeatherDisplay:10.37,2013-04-28 05:11:00,
2013-04-28 01:16:00,42.1,33.7,30.23,West,270,0.0,0.0,72,0.00,CLR,,0.00,WeatherDisplay:10.37,2013-04-28 05:16:00,
2013-04-28 01:21:00,41.5,34.2,30.23,SSE,158,0.0,0.0,75,0.00,CLR,,0.00,WeatherDisplay:10.37,2013-04-28 05:21:00,
2013-04-28 01:27:00,41.4,34.1,30.23,South,180,0.0,0.0,75,0.00,CLR,,0.00,WeatherDisplay:10.37,2013-04-28 05:27:00,
2013-04-28 01:32:00,41.4,34.1,30.23,South,180,0.0,0.0,75,0.00,CLR,,0.00,WeatherDisplay:10.37,2013-04-28 05:32:00,
2013-04-28 01:37:00,41.4,33.7,30.23,South,180,0.0,0.0,74,0.00,CLR,,0.00,WeatherDisplay:10.37,2013-04-28 05:37:00,
2013-04-28 01:42:00,41.0,33.3,30.22,West,270,0.0,0.0,74,0.00,CLR,,0.00,WeatherDisplay:10.37,2013-04-28 05:42:00,
2013-04-28 01:47:00,40.6,33.3,30.22,WNW,292,0.0,0.0,75,0.00,CLR,,0.00,WeatherDisplay:10.37,2013-04-28 05:47:00,
2013-04-28 01:52:00,40.5,33.9,30.22,West,270,0.0,0.0,77,0.00,CLR,,0.00,WeatherDisplay:10.37,2013-04-28 05:52:00,
2013-04-28 01:57:00,40.3,34.0,30.22,West,270,0.0,0.0,78,0.00,CLR,,0.00,WeatherDisplay:10.37,2013-04-28 05:57:00,
2013-04-28 02:02:00,40.3,34.0,30.22,NNW,338,0.0,0.0,78,0.00,CLR,,0.00,WeatherDisplay:10.37,2013-04-28 06:02:00,
2013-04-28 02:07:00,40.1,34.1,30.22,NNW,338,0.0,0.0,79,0.00,CLR,,0.00,WeatherDisplay:10.37,2013-04-28 06:07:00,
2013-04-28 02:12:00,39.9,34.2,30.22,WNW,292,0.0,0.0,80,0.00,CLR,,0.00,WeatherDisplay:10.37,2013-04-28 06:12:00,
2013-04-28 02:17:00,39.9,34.2,30.22,SSE,158,0.0,0.0,80,0.00,CLR,,0.00,WeatherDisplay:10.37,2013-04-28 06:17:00,
2013-04-28 02:22:00,39.6,34.6,30.22,ESE,112,0.0,0.0,82,0.00,CLR,,0.00,WeatherDisplay:10.37,2013-04-28 06:22:00,
2013-04-28 02:27:00,39.6,34.6,30.21,East,90,0.0,0.0,82,0.00,CLR,,0.00,WeatherDisplay:10.37,2013-04-28 06:27:00,
2013-04-28 02:32:00,39.7,35.0,30.21,NNE,22,0.0,0.0,83,0.00,CLR,,0.00,WeatherDisplay:10.37,2013-04-28 06:32:00,
2013-04-28 02:37:00,39.7,34.7,30.21,NNE,22,0.0,0.0,82,0.00,CLR,,0.00,WeatherDisplay:10.37,2013-04-28 06:37:00,
2013-04-28 02:42:00,39.6,34.2,30.21,NNE,22,0.0,0.0,81,0.00,CLR,,0.00,WeatherDisplay:10.37,2013-04-28 06:42:00,
2013-04-28 02:47:00,39.4,34.4,30.21,NNE,22,0.0,0.0,82,0.00,CLR,,0.00,WeatherDisplay:10.37,2013-04-28 06:47:00,
2013-04-28 02:52:00,39.4,34.7,30.21,NNE,22,0.0,0.0,83,0.00,CLR,,0.00,WeatherDisplay:10.37,2013-04-28 06:52:00,
2013-04-28 02:57:00,39.6,34.9,30.21,NNE,22,0.0,0.0,83,0.00,CLR,,0.00,WeatherDisplay:10.37,2013-04-28 06:57:00,
2013-04-28 03:02:00,39.2,34.2,30.21,SE,135,0.0,0.0,82,0.00,CLR,,0.00,WeatherDisplay:10.37,2013-04-28 07:02:00,
2013-04-28 03:07:00,38.7,33.7,30.21,South,180,0.0,0.0,82,0.00,CLR,,0.00,WeatherDisplay:10.37,2013-04-28 07:07:00,
2013-04-28 03:12:00,38.1,33.4,30.21,ESE,112,0.0,0.0,83,0.00,CLR,,0.00,WeatherDisplay:10.37,2013-04-28 07:12:00,
2013-04-28 03:17:00,38.1,34.0,30.21,ESE,112,0.0,0.0,85,0.00,CLR,,0.00,WeatherDisplay:10.37,2013-04-28 07:17:00,
2013-04-28 03:22:00,37.9,33.8,30.21,SW,225,0.0,0.0,85,0.00,CLR,,0.00,WeatherDisplay:10.37,2013-04-28 07:22:00,
2013-04-28 03:27:00,37.9,33.8,30.21,South,180,0.0,0.0,85,0.00,CLR,,0.00,WeatherDisplay:10.37,2013-04-28 07:27:00,
2013-04-28 03:32:00,37.8,33.4,30.21,SSE,158,0.0,0.0,84,0.00,CLR,,0.00,WeatherDisplay:10.37,2013-04-28 07:32:00,
2013-04-28 03:37:00,37.2,32.8,30.21,WNW,292,0.0,0.0,84,0.00,CLR,,0.00,WeatherDisplay:10.37,2013-04-28 07:37:00,
2013-04-28 03:42:00,37.2,32.8,30.21,WNW,292,0.0,0.0,84,0.00,CLR,,0.00,WeatherDisplay:10.37,2013-04-28 07:42:00,
2013-04-28 03:47:00,37.2,32.8,30.21,WNW,292,0.0,0.0,84,0.00,CLR,,0.00,WeatherDisplay:10.37,2013-04-28 07:47:00,
2013-04-28 03:52:00,37.0,33.2,30.21,WNW,292,0.0,0.0,86,0.00,CLR,,0.00,WeatherDisplay:10.37,2013-04-28 07:52:00,
2013-04-28 03:57:00,36.9,33.1,30.21,West,270,0.0,0.0,86,0.00,CLR,,0.00,WeatherDisplay:10.37,2013-04-28 07:57:00,
2013-04-28 04:02:00,36.9,33.7,30.21,WNW,292,0.0,0.0,88,0.00,CLR,,0.00,WeatherDisplay:10.37,2013-04-28 08:02:00,
2013-04-28 04:07:00,36.9,33.7,30.21,NW,315,0.0,0.0,88,0.00,CLR,,0.00,WeatherDisplay:10.37,2013-04-28 08:07:00,
2013-04-28 04:12:00,36.9,33.7,30.21,NW,315,0.0,0.0,88,0.00,CLR,,0.00,WeatherDisplay:10.37,2013-04-28 08:12:00,
2013-04-28 04:17:00,36.9,34.0,30.21,West,270,0.0,0.0,89,0.00,CLR,,0.00,WeatherDisplay:10.37,2013-04-28 08:17:00,
2013-04-28 04:22:00,36.9,34.0,30.21,West,270,0.0,0.0,89,0.00,CLR,,0.00,WeatherDisplay:10.37,2013-04-28 08:22:00,
2013-04-28 04:27:00,37.0,34.1,30.20,WNW,292,0.0,0.0,89,0.00,CLR,,0.00,WeatherDisplay:10.37,2013-04-28 08:27:00,
2013-04-28 04:32:00,37.0,34.3,30.20,WNW,292,0.0,0.0,90,0.00,CLR,,0.00,WeatherDisplay:10.37,2013-04-28 08:32:00,
2013-04-28 04:37:00,37.0,34.3,30.20,NW,315,0.0,0.0,90,0.00,CLR,,0.00,WeatherDisplay:10.37,2013-04-28 08:37:00,
2013-04-28 04:42:00,37.0,34.3,30.21,NW,315,0.0,0.0,90,0.00,CLR,,0.00,WeatherDisplay:10.37,2013-04-28 08:42:00,
2013-04-28 04:47:00,36.7,34.0,30.21,NNW,338,0.0,0.0,90,0.00,CLR,,0.00,WeatherDisplay:10.37,2013-04-28 08:47:00,
2013-04-28 04:52:00,36.5,33.6,30.21,West,270,0.0,0.0,89,0.00,CLR,,0.00,WeatherDisplay:10.37,2013-04-28 08:52:00,
2013-04-28 04:57:00,36.5,33.6,30.21,NNW,338,0.0,0.0,89,0.00,CLR,,0.00,WeatherDisplay:10.37,2013-04-28 08:57:00,
2013-04-28 05:02:00,36.7,33.8,30.20,NW,315,0.0,0.0,89,0.00,CLR,,0.00,WeatherDisplay:10.37,2013-04-28 09:02:00,
2013-04-28 05:07:00,36.3,33.4,30.20,WNW,292,0.0,0.0,89,0.00,CLR,,0.00,WeatherDisplay:10.37,2013-04-28 09:07:00,
2013-04-28 05:12:00,36.3,33.4,30.20,West,270,0.0,0.0,89,0.00,CLR,,0.00,WeatherDisplay:10.37,2013-04-28 09:12:00,
2013-04-28 05:17:00,36.5,33.6,30.20,WNW,292,0.0,0.0,89,0.00,CLR,,0.00,WeatherDisplay:10.37,2013-04-28 09:17:00,
2013-04-28 05:22:00,36.3,33.4,30.20,WNW,292,0.0,0.0,89,0.00,CLR,,0.00,WeatherDisplay:10.37,2013-04-28 09:22:00,
2013-04-28 05:27:00,36.1,33.2,30.21,NW,315,0.0,0.0,89,0.00,CLR,,0.00,WeatherDisplay:10.37,2013-04-28 09:27:00,
2013-04-28 05:33:00,35.8,32.9,30.21,NW,315,0.0,0.0,89,0.00,CLR,,0.00,WeatherDisplay:10.37,2013-04-28 09:33:00,
2013-04-28 05:38:00,35.6,32.7,30.20,WNW,292,0.0,0.0,89,0.00,CLR,,0.00,WeatherDisplay:10.37,2013-04-28 09:38:00,
2013-04-28 05:43:00,35.6,33.0,30.20,West,270,0.0,0.0,90,0.00,CLR,,0.00,WeatherDisplay:10.37,2013-04-28 09:43:00,
2013-04-28 05:48:00,36.0,33.4,30.20,NW,315,0.0,0.0,90,0.00,CLR,,0.00,WeatherDisplay:10.37,2013-04-28 09:48:00,
2013-04-28 05:53:00,36.1,33.7,30.21,NW,315,0.0,0.0,91,0.00,CLR,,0.00,WeatherDisplay:10.37,2013-04-28 09:53:00,
2013-04-28 05:58:00,36.5,34.1,30.21,NW,315,0.0,0.0,91,0.00,CLR,,0.00,WeatherDisplay:10.37,2013-04-28 09:58:00,
2013-04-28 06:03:00,36.3,33.9,30.20,NW,315,2.2,2.2,91,0.00,CLR,,0.00,WeatherDisplay:10.37,2013-04-28 10:03:00,
2013-04-28 06:08:00,36.3,33.9,30.20,West,270,0.0,0.4,91,0.00,CLR,,0.00,WeatherDisplay:10.37,2013-04-28 10:08:00,
2013-04-28 06:13:00,36.7,34.3,30.20,NW,315,1.7,1.7,91,0.00,CLR,,0.00,WeatherDisplay:10.37,2013-04-28 10:13:00,
2013-04-28 06:18:00,37.4,35.0,30.20,NNE,22,1.2,1.2,91,0.00,CLR,,0.00,WeatherDisplay:10.37,2013-04-28 10:18:00,
2013-04-28 06:23:00,38.3,35.6,30.20,NE,45,0.0,0.0,90,0.00,CLR,,0.00,WeatherDisplay:10.37,2013-04-28 10:23:00,
2013-04-28 06:28:00,38.8,35.0,30.21,NW,315,0.0,0.0,86,0.00,CLR,,0.00,WeatherDisplay:10.37,2013-04-28 10:28:00,
2013-04-28 06:33:00,39.9,36.1,30.21,East,90,0.0,0.0,86,0.00,CLR,,0.00,WeatherDisplay:10.37,2013-04-28 10:33:00,
2013-04-28 06:38:00,41.0,37.1,30.21,WNW,292,0.0,0.0,86,0.00,CLR,,0.00,WeatherDisplay:10.37,2013-04-28 10:38:00,
2013-04-28 06:43:00,41.7,37.5,30.21,SE,135,0.0,0.0,85,0.00,CLR,,0.00,WeatherDisplay:10.37,2013-04-28 10:43:00,
2013-04-28 06:48:00,42.6,37.8,30.21,WNW,292,0.0,0.0,83,0.00,CLR,,0.00,WeatherDisplay:10.37,2013-04-28 10:48:00,
2013-04-28 06:53:00,43.9,38.1,30.22,WNW,292,0.0,0.0,80,0.00,CLR,,0.00,WeatherDisplay:10.37,2013-04-28 10:53:00,
2013-04-28 06:58:00,44.8,38.4,30.22,NW,315,0.0,0.0,78,0.00,CLR,,0.00,WeatherDisplay:10.37,2013-04-28 10:58:00,
2013-04-28 07:03:00,45.9,37.4,30.21,NE,45,0.0,0.0,72,0.00,CLR,,0.00,WeatherDisplay:10.37,2013-04-28 11:03:00,
2013-04-28 07:08:00,46.9,37.3,30.21,WNW,292,0.0,0.0,69,0.00,CLR,,0.00,WeatherDisplay:10.37,2013-04-28 11:08:00,
2013-04-28 07:13:00,47.7,37.3,30.21,SSE,158,0.0,0.0,67,0.00,CLR,,0.00,WeatherDisplay:10.37,2013-04-28 11:13:00,
2013-04-28 07:18:00,49.1,37.8,30.21,NNE,22,1.2,1.4,65,0.00,CLR,,0.00,WeatherDisplay:10.37,2013-04-28 11:18:00,
2013-04-28 07:23:00,50.4,37.0,30.21,NE,45,0.0,0.0,60,0.00,CLR,,0.00,WeatherDisplay:10.37,2013-04-28 11:23:00,
2013-04-28 07:28:00,51.3,37.4,30.22,NNE,22,0.0,0.0,59,0.00,CLR,,0.00,WeatherDisplay:10.37,2013-04-28 11:28:00,
2013-04-28 07:33:00,52.5,37.7,30.22,NE,45,0.0,0.0,57,0.00,CLR,,0.00,WeatherDisplay:10.37,2013-04-28 11:33:00,
2013-04-28 07:39:00,52.2,37.4,30.22,West,270,0.0,0.0,57,0.00,CLR,,0.00,WeatherDisplay:10.37,2013-04-28 11:39:00,
2013-04-28 07:44:00,53.4,36.7,30.22,SSE,158,3.5,3.5,53,0.00,CLR,,0.00,WeatherDisplay:10.37,2013-04-28 11:44:00,
2013-04-28 07:49:00,53.2,36.5,30.22,WNW,292,3.5,3.5,53,0.00,CLR,,0.00,WeatherDisplay:10.37,2013-04-28 11:49:00,
2013-04-28 07:54:00,51.4,36.2,30.23,West,270,2.3,2.3,56,0.00,CLR,,0.00,WeatherDisplay:10.37,2013-04-28 11:54:00,
2013-04-28 07:59:00,51.1,36.8,30.23,South,180,1.2,0.0,58,0.00,CLR,,0.00,WeatherDisplay:10.37,2013-04-28 11:59:00,
2013-04-28 08:04:00,52.2,37.0,30.23,South,180,0.0,0.0,56,0.00,CLR,,0.00,WeatherDisplay:10.37,2013-04-28 12:04:00,
2013-04-28 08:09:00,51.4,36.7,30.23,ESE,112,0.0,0.0,57,0.00,CLR,,0.00,WeatherDisplay:10.37,2013-04-28 12:09:00,
2013-04-28 08:14:00,52.3,36.6,30.23,WNW,292,2.3,2.3,55,0.00,CLR,,0.00,WeatherDisplay:10.37,2013-04-28 12:14:00,
2013-04-28 08:19:00,52.3,36.6,30.23,West,270,2.7,2.7,55,0.00,CLR,,0.00,WeatherDisplay:10.37,2013-04-28 12:19:00,
2013-04-28 08:24:00,54.3,36.0,30.23,ESE,112,3.5,3.5,50,0.00,CLR,,0.00,WeatherDisplay:10.37,2013-04-28 12:24:00,
2013-04-28 08:29:00,54.1,36.4,30.23,SSE,158,2.3,2.3,51,0.00,CLR,,0.00,WeatherDisplay:10.37,2013-04-28 12:29:00,
2013-04-28 08:34:00,54.1,36.4,30.23,SE,135,2.3,2.3,51,0.00,CLR,,0.00,WeatherDisplay:10.37,2013-04-28 12:34:00,
2013-04-28 08:39:00,54.7,37.4,30.23,SSE,158,4.6,4.6,52,0.00,CLR,,0.00,WeatherDisplay:10.37,2013-04-28 12:39:00,
2013-04-28 08:44:00,55.4,37.6,30.23,NNE,22,0.0,0.0,51,0.00,CLR,,0.00,WeatherDisplay:10.37,2013-04-28 12:44:00,
2013-04-28 08:49:00,55.6,37.7,30.23,SSE,158,2.7,2.7,51,0.00,CLR,,0.00,WeatherDisplay:10.37,2013-04-28 12:49:00,
2013-04-28 08:54:00,56.1,37.7,30.23,South,180,2.3,2.3,50,0.00,CLR,,0.00,WeatherDisplay:10.37,2013-04-28 12:54:00,
2013-04-28 08:59:00,56.3,37.4,30.23,SSE,158,2.3,2.3,49,0.00,CLR,,0.00,WeatherDisplay:10.37,2013-04-28 12:59:00,
2013-04-28 09:04:00,57.4,38.4,30.24,East,90,3.5,3.5,49,0.00,CLR,,0.00,WeatherDisplay:10.37,2013-04-28 13:04:00,
2013-04-28 09:09:00,57.7,37.6,30.24,South,180,4.6,4.6,47,0.00,CLR,,0.00,WeatherDisplay:10.37,2013-04-28 13:09:00,
2013-04-28 09:14:00,57.2,37.1,30.24,ESE,112,4.7,4.7,47,0.00,CLR,,0.00,WeatherDisplay:10.37,2013-04-28 13:14:00,
2013-04-28 09:19:00,57.2,37.1,30.24,West,270,1.2,0.0,47,0.00,CLR,,0.00,WeatherDisplay:10.37,2013-04-28 13:19:00,
2013-04-28 09:24:00,58.3,37.0,30.24,SSE,158,4.7,4.7,45,0.00,CLR,,0.00,WeatherDisplay:10.37,2013-04-28 13:24:00,
2013-04-28 09:29:00,59.2,36.7,30.24,SSE,158,3.7,3.7,43,0.00,CLR,,0.00,WeatherDisplay:10.37,2013-04-28 13:29:00,
2013-04-28 09:34:00,59.2,37.3,30.24,SE,135,1.7,1.7,44,0.00,CLR,,0.00,WeatherDisplay:10.37,2013-04-28 13:34:00,
2013-04-28 09:39:00,60.3,37.7,30.24,South,180,5.8,5.8,43,0.00,CLR,,0.00,WeatherDisplay:10.37,2013-04-28 13:39:00,
2013-04-28 09:44:00,60.1,36.9,30.24,SSE,158,4.6,4.6,42,0.00,CLR,,0.00,WeatherDisplay:10.37,2013-04-28 13:44:00,
2013-04-28 09:49:00,59.7,36.6,30.24,SSE,158,4.7,4.7,42,0.00,CLR,,0.00,WeatherDisplay:10.37,2013-04-28 13:49:00,
2013-04-28 09:54:00,60.6,36.8,30.24,ESE,112,5.8,5.8,41,0.00,CLR,,0.00,WeatherDisplay:10.37,2013-04-28 13:54:00,
2013-04-28 09:59:00,61.3,36.8,30.24,SSE,158,4.6,4.6,40,0.00,CLR,,0.00,WeatherDisplay:10.37,2013-04-28 13:59:00,
2013-04-28 10:04:00,61.7,37.7,30.24,NE,45,3.5,3.5,41,0.00,CLR,,0.00,WeatherDisplay:10.37,2013-04-28 14:04:00,
2013-04-28 10:09:00,61.7,37.7,30.24,NE,45,3.5,3.5,41,0.00,CLR,,0.00,WeatherDisplay:10.37,2013-04-28 14:09:00,
2013-04-28 10:14:00,62.6,36.6,30.24,South,180,5.3,5.3,38,0.00,CLR,,0.00,WeatherDisplay:10.37,2013-04-28 14:14:00,
2013-04-28 10:19:00,63.3,37.2,30.24,South,180,3.5,3.5,38,0.00,CLR,,0.00,WeatherDisplay:10.37,2013-04-28 14:19:00,
2013-04-28 10:24:00,63.1,37.1,30.24,South,180,6.3,6.3,38,0.00,CLR,,0.00,WeatherDisplay:10.37,2013-04-28 14:24:00,
2013-04-28 10:29:00,63.1,37.1,30.24,NE,45,2.7,2.7,38,0.00,CLR,,0.00,WeatherDisplay:10.37,2013-04-28 14:29:00,
2013-04-28 10:34:00,63.3,37.2,30.24,ESE,112,2.7,2.7,38,0.00,CLR,,0.00,WeatherDisplay:10.37,2013-04-28 14:34:00,
2013-04-28 10:39:00,63.7,37.6,30.23,SSE,158,3.5,3.5,38,0.00,CLR,,0.00,WeatherDisplay:10.37,2013-04-28 14:39:00,
2013-04-28 10:44:00,65.1,37.5,30.23,South,180,5.8,5.8,36,0.00,CLR,,0.00,WeatherDisplay:10.37,2013-04-28 14:44:00,
2013-04-28 10:49:00,66.2,37.7,30.23,SSE,158,8.1,8.1,35,0.00,CLR,,0.00,WeatherDisplay:10.37,2013-04-28 14:49:00,
2013-04-28 10:54:00,65.5,37.1,30.23,South,180,8.8,8.8,35,0.00,CLR,,0.00,WeatherDisplay:10.37,2013-04-28 14:54:00,
2013-04-28 10:59:00,65.3,36.9,30.23,South,180,8.1,8.1,35,0.00,CLR,,0.00,WeatherDisplay:10.37,2013-04-28 14:59:00,
2013-04-28 11:04:00,65.5,37.1,30.22,West,270,3.5,3.5,35,0.00,CLR,,0.00,WeatherDisplay:10.37,2013-04-28 15:04:00,
2013-04-28 11:09:00,65.7,37.3,30.22,ESE,112,10.4,10.4,35,0.00,CLR,,0.00,WeatherDisplay:10.37,2013-04-28 15:09:00,
2013-04-28 11:14:00,66.2,37.7,30.22,SSE,158,5.8,5.8,35,0.00,CLR,,0.00,WeatherDisplay:10.37,2013-04-28 15:14:00,
2013-04-28 11:19:00,65.7,36.5,30.22,SSE,158,6.9,6.9,34,0.00,CLR,,0.00,WeatherDisplay:10.37,2013-04-28 15:19:00,
2013-04-28 11:24:00,65.7,36.5,30.22,ESE,112,5.8,5.8,34,0.00,CLR,,0.00,WeatherDisplay:10.37,2013-04-28 15:24:00,
2013-04-28 11:29:00,65.8,37.4,30.22,South,180,9.2,9.2,35,0.00,CLR,,0.00,WeatherDisplay:10.37,2013-04-28 15:29:00,
2013-04-28 11:34:00,66.7,40.9,30.22,SSE,158,9.4,9.4,39,0.00,CLR,,0.00,WeatherDisplay:10.37,2013-04-28 15:34:00,
2013-04-28 11:39:00,64.0,40.4,30.21,ESE,112,10.4,10.4,42,0.00,CLR,,0.00,WeatherDisplay:10.37,2013-04-28 15:39:00,
2013-04-28 11:44:00,64.8,41.2,30.21,SE,135,10.4,10.4,42,0.00,CLR,,0.00,WeatherDisplay:10.37,2013-04-28 15:44:00,
2013-04-28 11:49:00,64.0,41.6,30.21,SSE,158,10.4,10.4,44,0.00,CLR,,0.00,WeatherDisplay:10.37,2013-04-28 15:49:00,
2013-04-28 11:54:00,64.9,41.9,30.21,ENE,68,12.7,12.7,43,0.00,CLR,,0.00,WeatherDisplay:10.37,2013-04-28 15:54:00,
2013-04-28 11:59:00,64.0,41.6,30.21,East,90,4.6,4.6,44,0.00,CLR,,0.00,WeatherDisplay:10.37,2013-04-28 15:59:00,
2013-04-28 12:04:00,65.1,42.6,30.21,SE,135,10.4,10.4,44,0.00,CLR,,0.00,WeatherDisplay:10.37,2013-04-28 16:04:00,
2013-04-28 12:09:00,64.2,41.8,30.21,ESE,112,10.4,10.4,44,0.00,CLR,,0.00,WeatherDisplay:10.37,2013-04-28 16:09:00,
2013-04-28 12:14:00,64.4,41.4,30.21,South,180,10.4,10.4,43,0.00,CLR,,0.00,WeatherDisplay:10.37,2013-04-28 16:14:00,
2013-04-28 12:19:00,64.2,41.2,30.21,ESE,112,9.9,9.9,43,0.00,CLR,,0.00,WeatherDisplay:10.37,2013-04-28 16:19:00,
2013-04-28 12:24:00,63.9,41.0,30.21,ESE,112,10.4,10.4,43,0.00,CLR,,0.00,WeatherDisplay:10.37,2013-04-28 16:24:00,
2013-04-28 12:29:00,63.9,41.0,30.20,SSE,158,11.5,11.5,43,0.00,CLR,,0.00,WeatherDisplay:10.37,2013-04-28 16:29:00,
2013-04-28 12:34:00,64.0,40.4,30.20,West,270,8.1,8.1,42,0.00,CLR,,0.00,WeatherDisplay:10.37,2013-04-28 16:34:00,
2013-04-28 12:39:00,65.7,40.7,30.20,East,90,9.4,9.9,40,0.00,CLR,,0.00,WeatherDisplay:10.37,2013-04-28 16:39:00,
2013-04-28 12:44:00,65.3,40.3,30.20,ESE,112,9.4,9.4,40,0.00,CLR,,0.00,WeatherDisplay:10.37,2013-04-28 16:44:00,
2013-04-28 12:49:00,66.4,40.0,30.19,ESE,112,9.4,9.4,38,0.00,CLR,,0.00,WeatherDisplay:10.37,2013-04-28 16:49:00,
2013-04-28 12:55:00,65.7,40.1,30.19,SE,135,10.4,10.4,39,0.00,CLR,,0.00,WeatherDisplay:10.37,2013-04-28 16:55:00,
2013-04-28 13:00:00,66.6,40.2,30.19,ESE,112,9.9,9.9,38,0.00,CLR,,0.00,WeatherDisplay:10.37,2013-04-28 17:00:00,
2013-04-28 13:05:00,66.0,40.3,30.19,ESE,112,9.2,9.2,39,0.00,CLR,,0.00,WeatherDisplay:10.37,2013-04-28 17:05:00,
2013-04-28 13:10:00,66.0,40.3,30.19,ESE,112,6.3,6.3,39,0.00,CLR,,0.00,WeatherDisplay:10.37,2013-04-28 17:10:00,
2013-04-28 13:15:00,67.6,40.4,30.19,ESE,112,9.4,9.4,37,0.00,CLR,,0.00,WeatherDisplay:10.37,2013-04-28 17:15:00,
2013-04-28 13:20:00,66.7,39.6,30.19,East,90,8.1,8.1,37,0.00,CLR,,0.00,WeatherDisplay:10.37,2013-04-28 17:20:00,
2013-04-28 13:25:00,66.6,39.5,30.19,ESE,119,9.0,13.0,37,0.00,CLR,,0.00,WeatherDisplay:10.37,2013-04-28 17:25:00,
2013-04-28 13:30:00,66.4,40.0,30.18,ESE,119,9.0,13.0,38,0.00,CLR,,0.00,WeatherDisplay:10.37,2013-04-28 17:30:00,
2013-04-28 13:35:00,66.5,40.1,30.18,ESE,104,7.0,10.0,38,0.00,CLR,,0.00,WeatherDisplay:10.37,2013-04-28 17:35:00,
2013-04-28 13:40:00,66.9,40.5,30.18,SE,135,12.4,12.4,38,0.00,CLR,,0.00,WeatherDisplay:10.37,2013-04-28 17:40:00,
2013-04-28 13:45:00,66.4,39.3,30.18,SSE,158,11.5,11.5,37,0.00,CLR,,0.00,WeatherDisplay:10.37,2013-04-28 17:45:00,
2013-04-28 13:50:00,66.6,38.8,30.18,ESE,120,14.0,19.0,36,0.00,CLR,,0.00,WeatherDisplay:10.37,2013-04-28 17:50:00,
2013-04-28 13:55:00,66.0,39.0,30.18,ENE,68,13.8,13.8,37,0.00,CLR,,0.00,WeatherDisplay:10.37,2013-04-28 17:55:00,
2013-04-28 14:00:00,66.2,39.1,30.18,ENE,68,10.9,10.9,37,0.00,CLR,,0.00,WeatherDisplay:10.37,2013-04-28 18:00:00,
2013-04-28 14:05:00,66.2,39.1,30.17,ENE,74,10.0,11.0,37,0.00,CLR,,0.00,WeatherDisplay:10.37,2013-04-28 18:05:00,
2013-04-28 14:10:00,66.4,39.3,30.17,SE,135,11.5,11.5,37,0.00,CLR,,0.00,WeatherDisplay:10.37,2013-04-28 18:10:00,
2013-04-28 14:15:00,66.4,39.3,30.17,East,90,16.1,16.1,37,0.00,CLR,,0.00,WeatherDisplay:10.37,2013-04-28 18:15:00,
2013-04-28 14:20:00,66.7,39.6,30.17,ENE,68,12.7,12.7,37,0.00,CLR,,0.00,WeatherDisplay:10.37,2013-04-28 18:20:00,
2013-04-28 14:25:00,66.7,39.6,30.17,ENE,68,5.8,5.8,37,0.00,CLR,,0.00,WeatherDisplay:10.37,2013-04-28 18:25:00,
2013-04-28 14:30:00,66.2,38.4,30.17,ESE,108,9.0,12.0,36,0.00,CLR,,0.00,WeatherDisplay:10.37,2013-04-28 18:30:00,
2013-04-28 14:35:00,65.5,37.8,30.17,SSE,158,11.5,11.5,36,0.00,CLR,,0.00,WeatherDisplay:10.37,2013-04-28 18:35:00,
2013-04-28 14:40:00,65.7,38.0,30.16,ESE,112,10.9,10.9,36,0.00,CLR,,0.00,WeatherDisplay:10.37,2013-04-28 18:40:00,
2013-04-28 14:45:00,65.1,36.7,30.16,ESE,115,13.0,14.0,35,0.00,CLR,,0.00,WeatherDisplay:10.37,2013-04-28 18:45:00,
2013-04-28 14:50:00,64.8,37.2,30.16,ESE,121,12.0,15.0,36,0.00,CLR,,0.00,WeatherDisplay:10.37,2013-04-28 18:50:00,
2013-04-28 14:55:00,65.1,37.5,30.16,ESE,112,10.4,10.4,36,0.00,CLR,,0.00,WeatherDisplay:10.37,2013-04-28 18:55:00,
2013-04-28 15:00:00,64.9,36.6,30.16,SE,126,12.0,14.0,35,0.00,CLR,,0.00,WeatherDisplay:10.37,2013-04-28 19:00:00,
2013-04-28 15:05:00,64.7,36.4,30.16,SE,126,12.0,17.0,35,0.00,CLR,,0.00,WeatherDisplay:10.37,2013-04-28 19:05:00,
2013-04-28 15:10:00,64.4,36.1,30.16,ESE,112,10.4,12.6,35,0.00,CLR,,0.00,WeatherDisplay:10.37,2013-04-28 19:10:00,
2013-04-28 15:15:00,64.4,36.1,30.16,South,180,11.5,11.5,35,0.00,CLR,,0.00,WeatherDisplay:10.37,2013-04-28 19:15:00,
2013-04-28 15:20:00,64.0,35.8,30.16,East,90,16.1,16.1,35,0.00,CLR,,0.00,WeatherDisplay:10.37,2013-04-28 19:20:00,
2013-04-28 15:25:00,64.6,36.3,30.16,SE,130,10.0,16.0,35,0.00,CLR,,0.00,WeatherDisplay:10.37,2013-04-28 19:25:00,
2013-04-28 15:30:00,63.7,36.2,30.15,SE,132,13.0,16.0,36,0.00,CLR,,0.00,WeatherDisplay:10.37,2013-04-28 19:30:00,
2013-04-28 15:35:00,64.6,37.0,30.15,ESE,112,12.7,12.7,36,0.00,CLR,,0.00,WeatherDisplay:10.37,2013-04-28 19:35:00,
2013-04-28 15:40:00,65.0,37.4,30.15,SE,130,9.0,12.0,36,0.00,CLR,,0.00,WeatherDisplay:10.37,2013-04-28 19:40:00,
2013-04-28 15:45:00,64.9,37.3,30.15,SE,132,12.0,15.0,36,0.00,CLR,,0.00,WeatherDisplay:10.37,2013-04-28 19:45:00,
2013-04-28 15:50:00,64.6,37.7,30.15,South,180,13.5,13.5,37,0.00,CLR,,0.00,WeatherDisplay:10.37,2013-04-28 19:50:00,
2013-04-28 15:55:00,64.5,37.6,30.15,ESE,120,10.0,14.0,37,0.00,CLR,,0.00,WeatherDisplay:10.37,2013-04-28 19:55:00,
2013-04-28 16:00:00,64.4,37.5,30.15,ESE,112,9.9,9.9,37,0.00,CLR,,0.00,WeatherDisplay:10.37,2013-04-28 20:00:00,
2013-04-28 16:05:00,64.0,37.2,30.14,SSE,158,9.4,11.9,37,0.00,CLR,,0.00,WeatherDisplay:10.37,2013-04-28 20:05:00,
2013-04-28 16:10:00,63.7,37.6,30.14,SSE,154,9.0,13.0,38,0.00,CLR,,0.00,WeatherDisplay:10.37,2013-04-28 20:10:00,
2013-04-28 16:15:00,64.4,38.2,30.14,ESE,112,14.0,14.0,38,0.00,CLR,,0.00,WeatherDisplay:10.37,2013-04-28 20:15:00,
2013-04-28 16:20:00,64.0,37.9,30.14,SE,135,10.4,11.2,38,0.00,CLR,,0.00,WeatherDisplay:10.37,2013-04-28 20:20:00,
2013-04-28 16:25:00,63.9,37.8,30.14,ESE,114,10.0,13.0,38,0.00,CLR,,0.00,WeatherDisplay:10.37,2013-04-28 20:25:00,
2013-04-28 16:30:00,63.5,38.1,30.14,ESE,112,12.7,12.7,39,0.00,CLR,,0.00,WeatherDisplay:10.37,2013-04-28 20:30:00,
2013-04-28 16:35:00,63.3,37.9,30.14,ESE,118,10.0,16.0,39,0.00,CLR,,0.00,WeatherDisplay:10.37,2013-04-28 20:35:00,
2013-04-28 16:40:00,63.0,37.6,30.13,ESE,110,12.0,13.0,39,0.00,CLR,,0.00,WeatherDisplay:10.37,2013-04-28 20:40:00,
2013-04-28 16:45:00,63.9,39.1,30.13,ESE,112,10.4,10.4,40,0.00,CLR,,0.00,WeatherDisplay:10.37,2013-04-28 20:45:00,
2013-04-28 16:50:00,63.3,38.6,30.13,SE,135,10.0,12.0,40,0.00,CLR,,0.00,WeatherDisplay:10.37,2013-04-28 20:50:00,
2013-04-28 16:55:00,63.5,38.7,30.13,ESE,112,10.4,10.4,40,0.00,CLR,,0.00,WeatherDisplay:10.37,2013-04-28 20:55:00,
2013-04-28 17:00:00,63.5,38.7,30.13,SE,129,7.0,17.0,40,0.00,CLR,,0.00,WeatherDisplay:10.37,2013-04-28 21:00:00,
2013-04-28 17:05:00,63.0,38.3,30.13,SE,141,12.0,17.0,40,0.00,CLR,,0.00,WeatherDisplay:10.37,2013-04-28 21:05:00,
2013-04-28 17:10:00,62.6,38.6,30.13,SE,135,15.0,15.0,41,0.00,CLR,,0.00,WeatherDisplay:10.37,2013-04-28 21:10:00,
2013-04-28 17:15:00,62.6,38.6,30.13,ESE,112,10.4,10.4,41,0.00,CLR,,0.00,WeatherDisplay:10.37,2013-04-28 21:15:00,
2013-04-28 17:20:00,62.1,38.1,30.13,ESE,113,9.0,15.0,41,0.00,CLR,,0.00,WeatherDisplay:10.37,2013-04-28 21:20:00,
2013-04-28 17:25:00,62.1,38.1,30.13,SSE,158,11.4,11.4,41,0.00,CLR,,0.00,WeatherDisplay:10.37,2013-04-28 21:25:00,
2013-04-28 17:30:00,61.9,38.5,30.14,SSE,158,11.4,11.4,42,0.00,CLR,,0.00,WeatherDisplay:10.37,2013-04-28 21:30:00,
2013-04-28 17:35:00,61.5,38.8,30.14,ESE,115,8.0,12.0,43,0.00,CLR,,0.00,WeatherDisplay:10.37,2013-04-28 21:35:00,
2013-04-28 17:40:00,61.3,38.6,30.14,ESE,112,11.5,11.5,43,0.00,CLR,,0.00,WeatherDisplay:10.37,2013-04-28 21:40:00,
2013-04-28 17:45:00,61.0,38.9,30.14,ESE,117,9.0,12.0,44,0.00,CLR,,0.00,WeatherDisplay:10.37,2013-04-28 21:45:00,
2013-04-28 17:50:00,60.9,38.9,30.14,SE,126,8.0,12.0,44,0.00,CLR,,0.00,WeatherDisplay:10.37,2013-04-28 21:50:00,
2013-04-28 17:55:00,60.5,39.0,30.14,SE,124,10.0,13.0,45,0.00,CLR,,0.00,WeatherDisplay:10.37,2013-04-28 21:55:00,
2013-04-28 18:00:00,60.4,38.9,30.14,ESE,112,9.2,9.2,45,0.00,CLR,,0.00,WeatherDisplay:10.37,2013-04-28 22:00:00,
2013-04-28 18:05:00,59.9,38.5,30.14,SE,135,11.5,11.5,45,0.00,CLR,,0.00,WeatherDisplay:10.37,2013-04-28 22:05:00,
2013-04-28 18:10:00,59.9,38.5,30.14,ESE,112,9.2,9.2,45,0.00,CLR,,0.00,WeatherDisplay:10.37,2013-04-28 22:10:00,
2013-04-28 18:15:00,59.7,38.3,30.14,ESE,121,8.0,13.0,45,0.00,CLR,,0.00,WeatherDisplay:10.37,2013-04-28 22:15:00,
2013-04-28 18:20:00,59.5,38.7,30.14,ESE,112,9.4,9.4,46,0.00,CLR,,0.00,WeatherDisplay:10.37,2013-04-28 22:20:00,
2013-04-28 18:25:00,59.4,39.1,30.14,SE,128,7.0,9.0,47,0.00,CLR,,0.00,WeatherDisplay:10.37,2013-04-28 22:25:00,
2013-04-28 18:30:00,59.4,39.1,30.14,SE,131,7.0,8.0,47,0.00,CLR,,0.00,WeatherDisplay:10.37,2013-04-28 22:30:00,
2013-04-28 18:35:00,58.8,38.6,30.14,SE,125,6.0,9.0,47,0.00,CLR,,0.00,WeatherDisplay:10.37,2013-04-28 22:35:00,
2013-04-28 18:40:00,58.8,38.6,30.14,SE,135,7.3,7.3,47,0.00,CLR,,0.00,WeatherDisplay:10.37,2013-04-28 22:40:00,
2013-04-28 18:45:00,58.6,38.4,30.14,ESE,112,6.0,8.0,47,0.00,CLR,,0.00,WeatherDisplay:10.37,2013-04-28 22:45:00,
2013-04-28 18:50:00,58.5,38.3,30.14,ESE,117,5.0,8.0,47,0.00,CLR,,0.00,WeatherDisplay:10.37,2013-04-28 22:50:00,
2013-04-28 18:55:00,58.5,38.3,30.14,ESE,112,6.3,6.3,47,0.00,CLR,,0.00,WeatherDisplay:10.37,2013-04-28 22:55:00,
2013-04-28 19:00:00,58.3,37.6,30.14,ESE,112,6.9,6.9,46,0.00,CLR,,0.00,WeatherDisplay:10.37,2013-04-28 23:00:00,
2013-04-28 19:05:00,57.8,37.7,30.14,SE,131,6.0,9.0,47,0.00,CLR,,0.00,WeatherDisplay:10.37,2013-04-28 23:05:00,
2013-04-28 19:10:00,57.6,37.5,30.14,SSE,158,5.8,5.8,47,0.00,CLR,,0.00,WeatherDisplay:10.37,2013-04-28 23:10:00,
2013-04-28 19:15:00,57.2,37.7,30.14,SE,129,5.0,6.0,48,0.00,CLR,,0.00,WeatherDisplay:10.37,2013-04-28 23:15:00,
2013-04-28 19:20:00,56.8,37.3,30.14,SSE,149,3.0,7.0,48,0.00,CLR,,0.00,WeatherDisplay:10.37,2013-04-28 23:20:00,
2013-04-28 19:25:00,56.5,37.6,30.14,ESE,112,5.3,5.3,49,0.00,CLR,,0.00,WeatherDisplay:10.37,2013-04-28 23:25:00,
2013-04-28 19:30:00,56.1,37.2,30.14,SSE,155,1.0,6.0,49,0.00,CLR,,0.00,WeatherDisplay:10.37,2013-04-28 23:30:00,
2013-04-28 19:35:00,55.9,37.0,30.14,SE,135,3.0,5.0,49,0.00,CLR,,0.00,WeatherDisplay:10.37,2013-04-28 23:35:00,
2013-04-28 19:40:00,55.6,36.7,30.13,SE,125,2.0,4.0,49,0.00,CLR,,0.00,WeatherDisplay:10.37,2013-04-28 23:40:00,
2013-04-28 19:45:00,55.2,36.4,30.13,East,90,3.2,3.5,49,0.00,CLR,,0.00,WeatherDisplay:10.37,2013-04-28 23:45:00,
2013-04-28 19:50:00,55.0,36.7,30.13,SE,133,3.0,6.0,50,0.00,CLR,,0.00,WeatherDisplay:10.37,2013-04-28 23:50:00,
2013-04-28 19:55:00,54.9,36.6,30.13,South,180,2.3,0.0,50,0.00,CLR,,0.00,WeatherDisplay:10.37,2013-04-28 23:55:00,
2013-04-28 20:00:00,54.5,36.2,30.13,SE,126,1.0,3.0,50,0.00,CLR,,0.00,WeatherDisplay:10.37,2013-04-29 00:00:00,
2013-04-28 20:05:00,54.1,35.9,30.13,SE,135,3.2,3.2,50,0.00,CLR,,0.00,WeatherDisplay:10.37,2013-04-29 00:05:00,
2013-04-28 20:10:00,54.1,35.9,30.13,South,180,3.5,3.5,50,0.00,CLR,,0.00,WeatherDisplay:10.37,2013-04-29 00:10:00,
2013-04-28 20:15:00,53.8,36.1,30.13,ESE,112,4.2,4.2,51,0.00,CLR,,0.00,WeatherDisplay:10.37,2013-04-29 00:15:00,
2013-04-28 20:20:00,53.6,35.9,30.13,SE,128,2.0,5.0,51,0.00,CLR,,0.00,WeatherDisplay:10.37,2013-04-29 00:20:00,
2013-04-28 20:25:00,53.6,36.4,30.13,ESE,112,2.7,2.7,52,0.00,CLR,,0.00,WeatherDisplay:10.37,2013-04-29 00:25:00,
2013-04-28 20:30:00,53.4,36.2,30.13,ESE,121,2.0,5.0,52,0.00,CLR,,0.00,WeatherDisplay:10.37,2013-04-29 00:30:00,
2013-04-28 20:35:00,53.2,36.0,30.13,ESE,118,2.0,4.0,52,0.00,CLR,,0.00,WeatherDisplay:10.37,2013-04-29 00:35:00,
2013-04-28 20:40:00,53.1,35.9,30.14,ESE,112,2.3,2.5,52,0.00,CLR,,0.00,WeatherDisplay:10.37,2013-04-29 00:40:00,
2013-04-28 20:45:00,52.9,36.2,30.14,ESE,117,2.0,3.0,53,0.00,CLR,,0.00,WeatherDisplay:10.37,2013-04-29 00:45:00,
2013-04-28 20:50:00,52.5,36.3,30.14,ESE,111,2.0,3.0,54,0.00,CLR,,0.00,WeatherDisplay:10.37,2013-04-29 00:50:00,
2013-04-28 20:55:00,52.3,36.1,30.14,SE,135,2.7,2.7,54,0.00,CLR,,0.00,WeatherDisplay:10.37,2013-04-29 00:55:00,
2013-04-28 21:00:00,52.1,36.4,30.14,SE,129,0.0,3.0,55,0.00,CLR,,0.00,WeatherDisplay:10.37,2013-04-29 01:00:00,
2013-04-28 21:05:00,51.8,36.1,30.14,SSE,158,2.3,2.3,55,0.00,CLR,,0.00,WeatherDisplay:10.37,2013-04-29 01:05:00,
2013-04-28 21:10:00,51.6,36.4,30.14,SE,133,2.0,3.0,56,0.00,CLR,,0.00,WeatherDisplay:10.37,2013-04-29 01:10:00,
2013-04-28 21:15:00,51.6,35.9,30.15,ESE,112,2.3,2.3,55,0.00,CLR,,0.00,WeatherDisplay:10.37,2013-04-29 01:15:00,
2013-04-28 21:20:00,51.6,35.9,30.15,ESE,112,2.3,2.3,55,0.00,CLR,,0.00,WeatherDisplay:10.37,2013-04-29 01:20:00,
2013-04-28 21:25:00,51.4,35.8,30.15,SE,130,2.0,3.0,55,0.00,CLR,,0.00,WeatherDisplay:10.37,2013-04-29 01:25:00,
2013-04-28 21:30:00,51.3,36.1,30.15,SE,135,0.0,0.0,56,0.00,CLR,,0.00,WeatherDisplay:10.37,2013-04-29 01:30:00,
2013-04-28 21:35:00,51.1,35.9,30.15,ESE,112,0.0,0.0,56,0.00,CLR,,0.00,WeatherDisplay:10.37,2013-04-29 01:35:00,
2013-04-28 21:40:00,51.1,35.9,30.15,SE,128,0.0,2.0,56,0.00,CLR,,0.00,WeatherDisplay:10.37,2013-04-29 01:40:00,
2013-04-28 21:45:00,50.9,35.7,30.15,SE,144,0.0,0.0,56,0.00,CLR,,0.00,WeatherDisplay:10.37,2013-04-29 01:45:00,
2013-04-28 21:50:00,50.9,35.7,30.15,SSE,158,0.0,0.0,56,0.00,CLR,,0.00,WeatherDisplay:10.37,2013-04-29 01:50:00,
2013-04-28 21:55:00,50.6,35.5,30.15,SSE,155,0.0,0.0,56,0.00,CLR,,0.00,WeatherDisplay:10.37,2013-04-29 01:55:00,
2013-04-28 22:00:00,50.3,35.6,30.15,SSE,152,0.0,0.0,57,0.00,CLR,,0.00,WeatherDisplay:10.37,2013-04-29 02:00:00,
2013-04-28 22:05:00,49.8,35.6,30.15,ESE,112,0.0,0.0,58,0.00,CLR,,0.00,WeatherDisplay:10.37,2013-04-29 02:05:00,
2013-04-28 22:10:00,49.3,35.2,30.15,SE,127,0.0,0.0,58,0.00,CLR,,0.00,WeatherDisplay:10.37,2013-04-29 02:10:00,
2013-04-28 22:15:00,49.1,35.4,30.16,ESE,123,0.0,0.0,59,0.00,CLR,,0.00,WeatherDisplay:10.37,2013-04-29 02:15:00,
2013-04-28 22:20:00,48.9,35.2,30.16,South,180,0.0,0.0,59,0.00,CLR,,0.00,WeatherDisplay:10.37,2013-04-29 02:20:00,
2013-04-28 22:25:00,48.9,35.2,30.16,South,180,0.0,0.0,59,0.00,CLR,,0.00,WeatherDisplay:10.37,2013-04-29 02:25:00,
2013-04-28 22:30:00,48.9,34.8,30.16,South,180,0.0,0.0,58,0.00,CLR,,0.00,WeatherDisplay:10.37,2013-04-29 02:30:00,
2013-04-28 22:35:00,48.6,34.5,30.16,South,180,0.0,0.0,58,0.00,CLR,,0.00,WeatherDisplay:10.37,2013-04-29 02:35:00,
2013-04-28 22:40:00,48.0,34.8,30.15,South,180,0.0,0.0,60,0.00,CLR,,0.00,WeatherDisplay:10.37,2013-04-29 02:40:00,
2013-04-28 22:45:00,47.8,35.0,30.15,South,180,0.0,0.0,61,0.00,CLR,,0.00,WeatherDisplay:10.37,2013-04-29 02:45:00,
2013-04-28 22:50:00,47.8,35.8,30.16,South,180,0.0,0.0,63,0.00,CLR,,0.00,WeatherDisplay:10.37,2013-04-29 02:50:00,
2013-04-28 22:55:00,47.7,35.3,30.16,South,180,0.0,0.0,62,0.00,CLR,,0.00,WeatherDisplay:10.37,2013-04-29 02:55:00,
2013-04-28 23:00:00,47.5,35.5,30.16,South,180,0.0,0.0,63,0.00,CLR,,0.00,WeatherDisplay:10.37,2013-04-29 03:00:00,
2013-04-28 23:05:00,47.1,35.6,30.16,South,180,0.0,0.0,64,0.00,CLR,,0.00,WeatherDisplay:10.37,2013-04-29 03:05:00,
2013-04-28 23:10:00,47.1,35.5,30.16,South,180,0.0,0.0,64,0.00,CLR,,0.00,WeatherDisplay:10.37,2013-04-29 03:10:00,
2013-04-28 23:15:00,46.8,35.3,30.16,South,180,0.0,0.0,64,0.00,CLR,,0.00,WeatherDisplay:10.37,2013-04-29 03:15:00,
2013-04-28 23:20:00,46.4,34.9,30.16,SE,135,0.0,0.0,64,0.00,CLR,,0.00,WeatherDisplay:10.37,2013-04-29 03:20:00,
2013-04-28 23:25:00,46.0,35.3,30.16,SSE,158,0.0,0.0,66,0.00,CLR,,0.00,WeatherDisplay:10.37,2013-04-29 03:25:00,
2013-04-28 23:30:00,45.8,35.4,30.16,SE,132,0.0,0.0,67,0.00,CLR,,0.00,WeatherDisplay:10.37,2013-04-29 03:30:00,
2013-04-28 23:35:00,45.7,35.7,30.16,South,180,0.0,0.0,68,0.00,CLR,,0.00,WeatherDisplay:10.37,2013-04-29 03:35:00,
2013-04-28 23:40:00,45.5,35.5,30.16,South,189,0.0,0.0,68,0.00,CLR,,0.00,WeatherDisplay:10.37,2013-04-29 03:40:00,
2013-04-28 23:45:00,45.5,35.2,30.16,WNW,296,0.0,0.0,67,0.00,CLR,,0.00,WeatherDisplay:10.37,2013-04-29 03:45:00,
2013-04-28 23:50:00,45.3,34.6,30.16,ESE,112,0.0,0.0,66,0.00,CLR,,0.00,WeatherDisplay:10.37,2013-04-29 03:50:00,
2013-04-28 23:55:00,45.0,34.7,30.16,SSE,156,0.0,0.0,67,0.00,CLR,,0.00,WeatherDisplay:10.37,2013-04-29 03:55:00,